Home   Weather   Genoa   Past weeks

Flag for Italy Past Weather in Genoa, Italy — Yesterday and Last 2 Weeks

Now
41 °F

Passing clouds.


Feels Like: 35 °F
Forecast: 39 / 50 °F
Wind: 10 mph from Northeast

Location: Genova / Sestri

Current Time: Jan 20, 2017 at 11:16:28 pm

Latest Report: Jan 20, 2017 at 10:20 pm


Visibility: N/A

Pressure: 30.39 "Hg

Humidity: 45%

Dew Point: 21 °F

Location of GenoaLocation

Past Weather in Genoa — Graph

°F

Genoa Temperature Yesterday

Maximum temperature yesterday: 50 °F (at 1:50 pm)
Minimum temperature yesterday: 43 °F (at 6:20 am)
Average temperature yesterday: 47 °F

High & Low Weather Summary for the Past Weeks

 TemperatureHumidityPressure
High55 °F (Jan 12, 11:20 pm)82% (Jan 12, 11:20 am)30.42 "Hg (Jan 12, 11:20 am)
Low34 °F (Jan 6, 4:50 am)10% (Jan 6, 2:20 pm)29.50 "Hg (Jan 13, 11:50 am)
Average44 °F40%30.07 "Hg
* Reported Jan 5 9:20 pm — Jan 20 9:50 pm, Genoa, Weather by CustomWeather, © 2017

Note: Actual official high and low records may vary slightly from our data, if they occured in-between our weather recording intervals... More about our weather records

Advertising

Genoa Weather History for the Previous 24 Hours

Scroll right to see more
 ConditionsComfort  
Time TempWeatherWind HumidityBarometerVisibility
9:50 pm
Fri, Jan 20
41 °FPassing clouds.8 mph45%30.39 "HgN/A
9:20 pm41 °FPassing clouds.8 mph45%30.39 "HgN/A
8:50 pm41 °FPassing clouds.7 mph45%30.39 "HgN/A
8:20 pm43 °FPassing clouds.7 mph42%30.39 "HgN/A
7:50 pm43 °FPassing clouds.9 mph42%30.39 "HgN/A
7:20 pm45 °FPassing clouds.7 mph39%30.39 "HgN/A
6:50 pm45 °FPassing clouds.9 mph39%30.39 "HgN/A
6:20 pm45 °FPassing clouds.9 mph39%30.39 "HgN/A
5:50 pm45 °FPassing clouds.8 mph39%30.39 "HgN/A
5:20 pm45 °FPassing clouds.8 mph39%30.39 "HgN/A
4:50 pm46 °FPassing clouds.12 mph37%30.39 "HgN/A
4:20 pm46 °FPassing clouds.12 mph34%30.39 "HgN/A
3:50 pm48 °FPassing clouds.13 mph32%30.39 "HgN/A
3:20 pm48 °FPassing clouds.10 mph32%30.39 "HgN/A
2:50 pm48 °FPassing clouds.10 mph32%30.39 "HgN/A
2:20 pm48 °FPassing clouds.10 mph29%30.39 "HgN/A
1:50 pm48 °FPassing clouds.12 mph32%30.39 "HgN/A
1:20 pm48 °FPassing clouds.13 mph29%30.39 "HgN/A
12:50 pm48 °FPassing clouds.9 mph32%30.39 "HgN/A
12:20 pm48 °FPassing clouds.12 mph29%30.42 "HgN/A
11:50 am48 °FPassing clouds.7 mph29%30.42 "HgN/A
11:20 am46 °FPassing clouds.8 mph32%30.42 "HgN/A
10:50 am45 °FPassing clouds.10 mph34%30.42 "HgN/A
10:20 am45 °FPassing clouds.10 mph34%30.42 "HgN/A
9:50 am45 °FPassing clouds.10 mph34%30.42 "HgN/A
9:20 am43 °FPassing clouds.9 mph36%30.42 "HgN/A
8:50 am41 °FPassing clouds.10 mph39%30.39 "HgN/A
8:20 am41 °FSunny.10 mph39%30.42 "Hg10 mi
7:50 am43 °FPassing clouds.9 mph36%30.39 "HgN/A
7:20 am41 °FPassing clouds.12 mph39%30.39 "HgN/A
6:50 am41 °FPassing clouds.9 mph39%30.39 "HgN/A
6:20 am41 °FClear.9 mph39%30.39 "Hg10 mi
5:50 am41 °FPassing clouds.9 mph39%30.39 "HgN/A
5:20 am41 °FPassing clouds.10 mph39%30.39 "HgN/A
4:50 am41 °FPassing clouds.9 mph39%30.39 "HgN/A
4:20 am43 °FPassing clouds.9 mph36%30.39 "HgN/A
3:50 am45 °FPassing clouds.10 mph34%30.39 "HgN/A
3:20 am46 °FPassing clouds.14 mph32%30.39 "HgN/A
2:50 am46 °FPassing clouds.15 mph32%30.39 "HgN/A
2:20 am46 °FPassing clouds.13 mph29%30.39 "HgN/A
1:50 am46 °FPassing clouds.13 mph29%30.39 "HgN/A
1:20 am46 °FPassing clouds.14 mph29%30.36 "HgN/A
12:50 am46 °FPassing clouds.14 mph32%30.39 "HgN/A
12:20 am46 °FPassing clouds.17 mph29%30.39 "HgN/A
11:50 pm
Thu, Jan 19
46 °FPassing clouds.16 mph32%30.39 "HgN/A
11:20 pm46 °FPassing clouds.17 mph29%30.36 "HgN/A
Weather by CustomWeather, © 2017

See weather overviewHow to use our weather pages